GAOFEN-13 01

Last updated on Mon Jun 22 2026 00:03:07 GMT+0000 (Coordinated Universal Time)

1 46610U 20071A 26172.77000561 -.00000363 00000+0 00000+0 0 9992 2 46610 0.5342 84.8365 0041350 123.4851 97.0230 1.00268562 20962
UTC large
Height (km)
Speed (km/s)
/
Latitude / Longitude
Inclination (degrees)
Orbital Period (minutes)
Azimuth
Elevation
Range (km)
Doppler Factor

Next 0 passes for location: London (51.5072 / 0.1276)

No passes found over London.
GAOFEN-13 01